TimeCEST,TemperatureF,Dew PointF,Humidity,Sea Level PressureIn,VisibilityMPH,Wind Direction,Wind SpeedMPH,Gust SpeedMPH,PrecipitationIn,Events,Conditions,WindDirDegrees,DateUTC
12:20 AM,69.8,59.0,68,29.98,6.2,ENE,3.5,-,N/A,,Scattered Clouds,70,2013-07-03 22:20:00
12:50 AM,69.8,59.0,68,29.98,6.2,ENE,3.5,-,N/A,,Scattered Clouds,60,2013-07-03 22:50:00
1:20 AM,69.8,59.0,68,29.98,6.2,East,5.8,-,N/A,,Scattered Clouds,80,2013-07-03 23:20:00
1:50 AM,69.8,59.0,68,29.98,6.2,ENE,5.8,-,N/A,,Scattered Clouds,70,2013-07-03 23:50:00
2:20 AM,68.0,59.0,73,29.98,6.2,ENE,4.6,-,N/A,,Scattered Clouds,60,2013-07-04 00:20:00
2:50 AM,68.0,57.2,68,29.98,6.2,ENE,5.8,-,N/A,,Scattered Clouds,70,2013-07-04 00:50:00
3:20 AM,68.0,55.4,64,29.98,6.2,East,8.1,-,N/A,,Scattered Clouds,80,2013-07-04 01:20:00
3:50 AM,68.0,53.6,60,29.98,6.2,East,5.8,-,N/A,,Scattered Clouds,90,2013-07-04 01:50:00
4:20 AM,68.0,53.6,60,29.98,6.2,East,5.8,-,N/A,,Scattered Clouds,100,2013-07-04 02:20:00
4:50 AM,68.0,53.6,60,29.98,6.2,East,5.8,-,N/A,,Scattered Clouds,100,2013-07-04 02:50:00
5:20 AM,68.0,55.4,64,29.98,6.2,East,5.8,-,N/A,,Scattered Clouds,100,2013-07-04 03:20:00
5:50 AM,66.2,55.4,68,29.98,6.2,East,5.8,-,N/A,,Scattered Clouds,90,2013-07-04 03:50:00
6:20 AM,68.0,55.4,64,30.01,6.2,ENE,4.6,-,N/A,,Scattered Clouds,70,2013-07-04 04:20:00
7:20 AM,69.8,57.2,64,30.01,6.2,ESE,5.8,-,N/A,,Scattered Clouds,110,2013-07-04 05:20:00
7:50 AM,71.6,57.2,60,30.01,6.2,East,5.8,-,N/A,,Partly Cloudy,90,2013-07-04 05:50:00
8:20 AM,71.6,57.2,60,30.01,-9999.0,ESE,9.2,-,N/A,,Clear,110,2013-07-04 06:20:00
8:50 AM,73.4,57.2,57,30.01,-9999.0,ESE,8.1,-,N/A,,Clear,110,2013-07-04 06:50:00
9:20 AM,75.2,55.4,50,30.01,-9999.0,SE,4.6,-,N/A,,Clear,130,2013-07-04 07:20:00
9:50 AM,75.2,55.4,50,30.01,-9999.0,Variable,3.5,-,N/A,,Clear,0,2013-07-04 07:50:00
10:20 AM,77.0,55.4,47,30.01,-9999.0,Variable,2.3,-,N/A,,Clear,0,2013-07-04 08:20:00
10:50 AM,78.8,55.4,44,30.01,-9999.0,Variable,3.5,-,N/A,,Clear,0,2013-07-04 08:50:00
11:20 AM,78.8,55.4,44,30.01,6.2,Variable,2.3,-,N/A,,Partly Cloudy,0,2013-07-04 09:20:00
11:50 AM,80.6,57.2,45,30.01,6.2,Variable,3.5,-,N/A,,Partly Cloudy,0,2013-07-04 09:50:00
12:20 PM,82.4,59.0,45,30.01,6.2,SE,2.3,-,N/A,,Partly Cloudy,140,2013-07-04 10:20:00
12:50 PM,84.2,59.0,42,30.01,6.2,Variable,3.5,-,N/A,,Partly Cloudy,0,2013-07-04 10:50:00
1:20 PM,84.2,57.2,40,29.98,6.2,Variable,3.5,-,N/A,,Scattered Clouds,0,2013-07-04 11:20:00
1:50 PM,87.8,55.4,33,29.98,6.2,Variable,2.3,-,N/A,,Scattered Clouds,0,2013-07-04 11:50:00
2:20 PM,84.2,55.4,37,29.98,6.2,Variable,3.5,-,N/A,,Scattered Clouds,0,2013-07-04 12:20:00
2:50 PM,84.2,57.2,40,29.98,6.2,Variable,1.2,-,N/A,,Scattered Clouds,0,2013-07-04 12:50:00
3:20 PM,77.0,62.6,61,29.98,6.2,ESE,10.4,-,N/A,,Scattered Clouds,120,2013-07-04 13:20:00
3:50 PM,80.6,59.0,48,29.98,6.2,SSW,4.6,-,N/A,,Scattered Clouds,200,2013-07-04 13:50:00
4:20 PM,84.2,59.0,42,29.98,6.2,East,3.5,-,N/A,,Scattered Clouds,90,2013-07-04 14:20:00
4:50 PM,86.0,57.2,37,29.98,6.2,NNE,9.2,-,N/A,,Partly Cloudy,30,2013-07-04 14:50:00
5:20 PM,78.8,57.2,47,30.01,6.2,North,12.7,-,N/A,,Partly Cloudy,10,2013-07-04 15:20:00
5:50 PM,75.2,59.0,57,30.01,6.2,North,10.4,-,N/A,,Scattered Clouds,10,2013-07-04 15:50:00
6:20 PM,77.0,59.0,54,30.01,6.2,Variable,4.6,-,N/A,,Scattered Clouds,0,2013-07-04 16:20:00
6:50 PM,78.8,60.8,54,30.01,-9999.0,Variable,3.5,-,N/A,,Clear,0,2013-07-04 16:50:00
7:20 PM,78.8,60.8,54,30.01,-9999.0,SSW,4.6,-,N/A,,Clear,210,2013-07-04 17:20:00
7:50 PM,77.0,59.0,54,30.01,-9999.0,Variable,2.3,-,N/A,,Clear,0,2013-07-04 17:50:00
8:20 PM,78.8,59.0,51,30.04,-9999.0,Variable,2.3,-,N/A,,Clear,0,2013-07-04 18:20:00
8:50 PM,75.2,60.8,61,30.04,-9999.0,NW,3.5,-,N/A,,Clear,320,2013-07-04 18:50:00
9:20 PM,73.4,60.8,65,30.04,-9999.0,Variable,2.3,-,N/A,,Clear,0,2013-07-04 19:20:00
9:50 PM,71.6,60.8,69,30.06,-9999.0,Calm,Calm,-,N/A,,Clear,0,2013-07-04 19:50:00
10:20 PM,69.8,60.8,73,30.06,-9999.0,Variable,2.3,-,N/A,,Clear,0,2013-07-04 20:20:00
10:50 PM,69.8,60.8,73,30.06,-9999.0,Variable,1.2,-,N/A,,Clear,0,2013-07-04 20:50:00
11:20 PM,68.0,59.0,73,30.06,-9999.0,Variable,2.3,-,N/A,,Clear,0,2013-07-04 21:20:00
11:50 PM,66.2,60.8,83,30.09,-9999.0,Calm,Calm,-,N/A,,Clear,0,2013-07-04 21:50:00